Weather History for PATA - March, 2013

Change the Weather History Date:

Thursday, March 21, 2013

  Actual Average Record
Temperature  
Mean Temperature 6 °F -  
Max Temperature 17 °F 23 °F 48 °F (1998)
Min Temperature -5 °F -1 °F -36 °F (1959)
Degree Days  
Heating Degree Days 60    
Moisture  
Dew Point 3 °F    
Average Humidity 81    
Maximum Humidity 92    
Minimum Humidity 67    
Precipitation  
Precipitation 0.00 in - - ()
Snow  
Snow 0.00 in - - ()
Snow Depth 12.00 in    
Sea Level Pressure  
Sea Level Pressure 30.02 in    
Wind  
Wind Speed 3 mph (East)    
Max Wind Speed 10 mph    
Max Gust Speed -    
Visibility 4 miles    
Events Snow    
Averages and records for this station are not official NWS values.
T = Trace of Precipitation, MM = Missing Value Source: NWS Daily Summary

Daily Weather History Graph

Daily Weather History Graph

Search for Another Location

Airport or City:

Trip Planner

Search our weather history database for the weather conditions in past years. The results will help you decide how hot, cold, wet, or windy it might be!

Date:

Astronomy

Mar. 21, 2013 Rise Set
Actual Time 8:03 AM AKDT 8:29 PM AKDT
Civil Twilight 7:13 AM AKDT 9:19 PM AKDT
Nautical Twilight 6:12 AM AKDT 10:21 PM AKDT
Astronomical Twilight 5:00 AM AKDT 11:34 PM AKDT
Moon 1:17 PM AKDT (3/21) 6:27 AM AKDT (3/21)
Length of Visible Light 14h 05m
Length of Day
12h 25m
Waxing Gibbous, 70% of the Moon is Illuminated
Mar 21
Waxing Gibbous
Mar 27
Full
Apr 2
Last Quarter
Apr 10
New
Apr 18
First Quarter

Hourly Weather History & Observations

Time (AKDT) Temp. Windchill Dew Point Humidity Pressure Visibility Wind Dir Wind Speed Gust Speed Precip Events Conditions
12:18 AM -2.2 °F - -5.8 °F 85% 29.96 in 10.0 mi Calm Calm - N/A   Mostly Cloudy
12:27 AM -2.2 °F - -7.6 °F 78% 29.96 in 10.0 mi Calm Calm - N/A   Mostly Cloudy
12:41 AM -4.0 °F -14.6 °F -9.4 °F 78% 29.97 in 9.0 mi NE 4.6 mph - N/A   Overcast
12:52 AM -5.1 °F -15.8 °F -9.0 °F 83% 30.00 in 8.0 mi NNE 4.6 mph - N/A   Overcast
1:05 AM -4.0 °F -14.6 °F -7.6 °F 85% 29.97 in 7.0 mi North 4.6 mph - N/A   Overcast
1:33 AM -2.2 °F -12.5 °F -7.6 °F 78% 29.97 in 3.0 mi NE 4.6 mph - N/A Snow Light Snow
1:52 AM -0.9 °F - -6.0 °F 79% 30.01 in 4.0 mi Calm Calm - N/A Snow Light Snow
2:29 AM -0.4 °F -8.3 °F -5.8 °F 78% 29.98 in 2.5 mi NE 3.5 mph - N/A Snow Light Snow
2:39 AM 1.4 °F -6.2 °F -2.2 °F 85% 29.98 in 1.5 mi ENE 3.5 mph - N/A Snow Light Snow
2:44 AM 1.4 °F - -2.2 °F 85% 29.98 in 2.0 mi Calm Calm - N/A Snow Light Snow
2:52 AM 1.9 °F - -2.9 °F 80% 30.01 in 1.0 mi Calm Calm - N/A Snow Light Snow
3:06 AM 3.2 °F -4.2 °F -0.4 °F 85% 29.99 in 3.0 mi East 3.5 mph - N/A Snow Light Snow
3:17 AM 5.0 °F -4.1 °F 1.4 °F 85% 29.99 in 6.0 mi ESE 4.6 mph - N/A Snow Light Snow
3:33 AM 3.2 °F -7.8 °F 1.4 °F 92% 29.99 in 2.0 mi ESE 5.8 mph - N/A Snow Light Snow
3:35 AM 3.2 °F -7.8 °F 1.4 °F 92% 29.99 in 1.5 mi ESE 5.8 mph - N/A Snow Light Snow
3:52 AM 6.1 °F -2.8 °F 1.9 °F 83% 30.02 in 1.2 mi ESE 4.6 mph - N/A Snow Light Snow
4:03 AM 6.8 °F -2.0 °F 1.4 °F 79% 29.99 in 1.2 mi ESE 4.6 mph - N/A Snow Light Snow
4:11 AM 6.8 °F -3.5 °F 1.4 °F 79% 29.99 in 2.0 mi East 5.8 mph - N/A Snow Light Snow
4:23 AM 6.8 °F -4.8 °F 1.4 °F 79% 29.99 in 1.5 mi East 6.9 mph - N/A Snow Light Snow
4:29 AM 6.8 °F -4.8 °F 1.4 °F 79% 29.99 in 2.0 mi East 6.9 mph - N/A Snow Light Snow
4:37 AM 6.8 °F -2.0 °F 1.4 °F 79% 29.99 in 6.0 mi ESE 4.6 mph - N/A   Overcast
4:52 AM 7.0 °F -3.3 °F 3.0 °F 84% 30.01 in 7.0 mi ESE 5.8 mph - N/A Snow Light Snow
5:24 AM 6.8 °F -4.8 °F 1.4 °F 79% 30.00 in 2.5 mi East 6.9 mph - N/A Snow Light Snow
5:52 AM 6.1 °F -2.8 °F 1.9 °F 83% 30.02 in 2.0 mi ESE 4.6 mph - N/A Snow Light Snow
6:00 AM 5.0 °F -4.1 °F 1.4 °F 85% 30.00 in 1.5 mi ESE 4.6 mph - N/A Snow Light Snow
6:05 AM 6.8 °F -3.5 °F 1.4 °F 79% 30.00 in 3.0 mi ESE 5.8 mph - N/A Snow Light Snow
6:38 AM 6.8 °F -4.8 °F 1.4 °F 79% 30.00 in 1.8 mi ESE 6.9 mph - N/A Snow Light Snow
6:52 AM 6.1 °F -4.3 °F 3.0 °F 87% 30.03 in 1.2 mi ESE 5.8 mph - N/A Snow Light Snow
7:04 AM 6.8 °F -5.9 °F 1.4 °F 79% 30.01 in 1.8 mi ESE 8.1 mph - N/A Snow Light Snow
7:27 AM 3.2 °F -10.3 °F 1.4 °F 92% 30.02 in 2.0 mi ESE 8.1 mph - N/A Snow Light Snow
7:37 AM 5.0 °F -8.1 °F 1.4 °F 85% 30.02 in 3.0 mi ESE 8.1 mph - N/A Snow Light Snow
7:52 AM 5.0 °F -6.9 °F 1.0 °F 84% 30.04 in 2.0 mi ESE 6.9 mph - N/A Snow Light Snow
8:04 AM 5.0 °F -6.9 °F 1.4 °F 85% 30.02 in 1.5 mi ESE 6.9 mph - N/A Snow Light Snow
8:13 AM 5.0 °F -6.9 °F 1.4 °F 85% 30.03 in 0.8 mi ESE 6.9 mph - N/A Snow Light Snow
8:16 AM 3.2 °F -7.8 °F 1.4 °F 92% 30.02 in 3.0 mi ESE 5.8 mph - N/A Snow Light Snow
8:52 AM 5.0 °F -2.1 °F 1.0 °F 84% 30.06 in 2.0 mi ESE 3.5 mph - N/A Snow Light Snow
8:59 AM 3.2 °F -6.2 °F 1.4 °F 92% 30.04 in 1.2 mi ESE 4.6 mph - N/A Snow Light Snow
9:19 AM 5.0 °F - 1.4 °F 85% 30.04 in 1.2 mi Calm Calm - N/A Snow Light Snow
9:26 AM 5.0 °F - 1.4 °F 85% 30.04 in 2.5 mi Calm Calm - N/A Snow Light Snow
9:52 AM 5.0 °F -4.1 °F 1.9 °F 87% 30.07 in 2.5 mi SE 4.6 mph - N/A Snow Light Snow
10:02 AM 5.0 °F -4.1 °F 1.4 °F 85% 30.05 in 2.5 mi ESE 4.6 mph - N/A Snow Light Snow
10:41 AM 6.8 °F -0.1 °F 1.4 °F 79% 30.05 in 1.8 mi East 3.5 mph - N/A Snow Light Snow
10:52 AM 6.1 °F -0.9 °F 1.9 °F 83% 30.08 in 2.0 mi ESE 3.5 mph - N/A Snow Light Snow
11:33 AM 6.8 °F - 3.2 °F 85% 30.06 in 8.0 mi Calm Calm - N/A   Overcast
11:52 AM 9.0 °F - 3.9 °F 80% 30.09 in 10.0 mi Calm Calm - N/A   Overcast
12:52 PM 10.0 °F - 3.0 °F 73% 30.10 in 9.0 mi Calm Calm - N/A   Overcast
1:02 PM 10.4 °F - 3.2 °F 73% 30.07 in 1.8 mi Calm Calm - N/A Snow Light Snow
1:18 PM 10.4 °F - 3.2 °F 73% 30.07 in 2.5 mi Calm Calm - N/A Snow Light Snow
1:23 PM 10.4 °F - 3.2 °F 73% 30.07 in 4.0 mi Calm Calm - N/A Snow Light Snow
1:52 PM 12.9 °F - 5.0 °F 71% 30.10 in 10.0 mi Calm Calm - N/A   Mostly Cloudy
2:52 PM 12.9 °F - 3.9 °F 67% 30.10 in 10.0 mi Calm Calm - N/A   Overcast
3:52 PM 12.9 °F - 5.0 °F 71% 30.09 in 10.0 mi Calm Calm - N/A   Overcast
4:41 PM 12.2 °F 4.3 °F 6.8 °F 79% 30.05 in 7.0 mi ESE 4.6 mph - N/A   Overcast
4:52 PM 12.9 °F 5.2 °F 8.1 °F 81% 30.08 in 2.0 mi ESE 4.6 mph - N/A Snow Light Snow
4:59 PM 12.2 °F - 8.6 °F 85% 30.05 in 1.0 mi Calm Calm - N/A Snow Light Snow
5:31 PM 14.0 °F - 10.4 °F 86% 30.05 in 2.0 mi Calm Calm - N/A   Overcast
5:41 PM 14.0 °F - 8.6 °F 79% 30.05 in 1.5 mi Calm Calm - N/A Snow Light Snow
5:52 PM 15.1 °F - 10.0 °F 80% 30.07 in 1.5 mi Calm Calm - N/A Snow Light Snow
6:00 PM 15.8 °F - 10.4 °F 79% 30.04 in 2.0 mi Calm Calm - N/A Snow Light Snow
6:22 PM 12.2 °F - 8.6 °F 85% 30.04 in 10.0 mi Calm Calm - N/A   Mostly Cloudy
6:52 PM 14.0 °F - 9.0 °F 80% 30.05 in 10.0 mi Calm Calm - N/A   Partly Cloudy
7:52 PM 12.9 °F 3.8 °F 7.0 °F 77% 30.04 in 10.0 mi East 5.8 mph - N/A   Overcast
8:52 PM 12.9 °F 6.9 °F 6.1 °F 74% 30.01 in 10.0 mi East 3.5 mph - N/A   Overcast
9:52 PM 16.0 °F 5.3 °F 8.1 °F 71% 30.00 in 10.0 mi East 8.1 mph - N/A   Overcast
10:40 PM 15.8 °F 4.2 °F 10.4 °F 79% 29.97 in 2.5 mi East 9.2 mph - N/A Snow Light Snow
10:52 PM 16.0 °F 3.6 °F 10.9 °F 81% 29.99 in 2.0 mi East 10.4 mph - N/A Snow Light Snow
10:59 PM 15.8 °F 3.4 °F 10.4 °F 79% 29.97 in 1.8 mi East 10.4 mph - N/A Snow Light Snow
11:08 PM 15.8 °F 4.2 °F 10.4 °F 79% 29.96 in 2.0 mi East 9.2 mph - N/A Snow Light Snow
11:17 PM 15.8 °F 4.2 °F 12.2 °F 86% 29.95 in 1.8 mi East 9.2 mph - N/A Snow Light Snow
11:35 PM 15.8 °F 4.2 °F 12.2 °F 86% 29.95 in 2.5 mi East 9.2 mph - N/A Snow Light Snow
11:52 PM 17.1 °F 6.6 °F 12.0 °F 81% 29.97 in 2.0 mi East 8.1 mph - N/A Snow Light Snow